Showing default

QZS-1R, 49336

Orbit data source: Space-Track

QZS-1R, 49336 is a Japanese payload satellite that was launched on Tue, 26 Oct 2021 UTC via an H-IIA 202 launch vehicle from the Tanegashima Space Center (TNSTA). Payload-class satellites include a variety of spacecraft equipped with specific instruments for various scientific and technological missions. These include communications satellites like Starlink; space stations such as the ISS; scientific satellites like the Hubble; Earth observation satellites from companies like Planet Labs, Umbra, and HawkEye 360; GPS; miniature CubeSats for education and research; and military/defense satellites.

Not visible in the next 10 days
Identifier
49336, 2021-096A
Orbit
Active
Country
Flag of JPJP / JPN
Related business
Manufacturer
MELCO
Mission
Operational Civil Nav/Com
Bus & Motor
DS-2000, LAPS-500?
Mass
4,020 kg wet, 1,802 kg dry
Launch date (UTC)
2021-10-26 (5 years ago)
Launch vehicle
H-IIA 202
Launch site
Tanegashima Space Center (TNSTA)
Object type
Payload
Rocket body
Debris
Shape & HBR
Box + 2 Pan, 12.7 m
Radar Cross Section
39.598 m², Large (>1 m²)

Expand to show TLE details & history
Last TLE update: 3 days ago

TLE from 3 days ago
0 QZS-1R
1 49336U 21096A   26170.63258758 -.00000290  00000-0  00000-0 0  9995
2 49336  37.4674  79.5460 0754800 271.8525 278.0167  1.00254705 17039
Epoch: 2026-06-19T15:10Z
TLE epoch observation values (Epoch: 2026-06-19T15:10:55.566Z)
Latitude
-0.79102°
Longitude
124.99204°
Altitude
35,575.895 km
Speed
3.09 km/s
True Right ascension
17h 22m 19s
True Declination
0° 47' 25"
Sunlit
Object was in daylight at epoch
Visualization orbit readout
Latitude
Unknown
Longitude
Unknown
Altitude
Unknown
Speed
Unknown
Apparent Right ascension
Unknown
Apparent Declination
Unknown
Sunlit
N/A
Visualization observer readout
Local Sidereal Time
21:27:11
Azimuth
Unknown
Elevation
Unknown
Doppler factor
Unknown
Orbital elements
Apogee altitude
38,974.871 km
Perigee altitude
32,608.886 km
Semi-major axis
42,170.015 km
Eccentricity
0.07548
Inclination
37.4674°
RAAN
79.546°
Arg. of periapsis
271.8525°
True anomaly
269.3707°
Mean anomaly
278.0167°
Eccentric anomaly
273.70103°
Mean motion
0.25063 °/min
Orbital period
1,436.37 mins
BSTAR
0
Loading maneuver chart data...
Computing Atmospheric mass density...
Loading historical data...
Loading historical data...
Loading historical data...
Loading historical data...
Loading historical data...
Loading historical data...
Loading historical data...
Other satellites on launch #96 in the year 2021 (2021-10-26 UTC)

Documentation

Showing up to 5 results
|